Regional Weather Roundup
Issued by NWS Upton, NY

Current Version | Previous Version | Text Only | Print | Product List | Glossary On
Versions: 1 2 3 4 5 6 7 8 9 10 11 12 13 14 15 16 17 18 19 20 21 22 23 24 25 26 27
000
ASUS41 KOKX 191705
RWROKX

Regional Weather Roundup
National Weather Service New York NY
100 PM EDT THU APR 19 2018

Note: "FAIR" indicates few or no clouds below 12,000 feet with no
significant weather and/or obstructions to visibility.

NYZ071-072-176-178-NJZ106-104-191800-
New York City Metro Area

CITY           SKY/WX    TMP DP  RH WIND       PRES   REMARKS
Central Park   CLOUDY    44  36  73 NW6       29.74R
Bronx Bot Gard   N/A     43  34  70 W5        29.73S
Bronx Lehman C   N/A     41  36  81 N6          N/A
LaGuardia Arpt CLOUDY    45  36  70 NW10      29.72R
Queens College   N/A     43  36  75 N7          N/A
Kennedy Intl   CLOUDY    44  40  85 N8        29.73R
Breezy Point     N/A     43 N/A N/A NW6         N/A
Brooklyn Coll    N/A     45  37  76 NW7         N/A
Staten Island    N/A     43  37  81 N7          N/A
Newark/Liberty LGT RAIN  45  38  76 NW8       29.72R
Teterboro      CLOUDY    44  36  73 NW12      29.72R
$$

NYZ177-179-078>081-191800-
Long Island New York

CITY           SKY/WX    TMP DP  RH WIND       PRES   REMARKS
Jones Beach      N/A     43 N/A N/A N6          N/A
Wantagh          N/A     45  39  81 N6          N/A
Hempstead        N/A     43  39  87 NW3       29.74S
Matinecock Pt    N/A     43 N/A N/A NW5         N/A
Farmingdale    CLOUDY    43  39  86 N7        29.71R
MacArthur/ISP  LGT RAIN  42  39  89 N7        29.70R
Stony Brook      N/A     41  37  87 N2          N/A
Shirley        LGT RAIN  42  39  89 N3        29.72R
Mt Sinai Harb    N/A     41 N/A N/A MISG        N/A
Westhampton    LGT RAIN  43  37  79 NW3       29.72R
East Hampton   CLOUDY    40  37  89 CALM      29.69S
Southold         N/A     41  37  87 E1          N/A
Montauk          N/A     43  40  89 VRB5      29.68F
$$

NYZ052-065-067-191800-
Hudson Valley

CITY           SKY/WX    TMP DP  RH WIND       PRES   REMARKS
White Plains   PTSUNNY   41  36  82 NW8       29.70R
Larchmont Harb   N/A     41 N/A N/A W6          N/A
Croton On Huds   N/A     41 N/A N/A SW7         N/A
Somers           N/A     39  37  93 NW3         N/A
Brewster         N/A     37  36  93 N3          N/A
Newburgh       CLOUDY    39  37  93 VRB6      29.72F WCI  35
Montgomery     CLOUDY    40  35  83 W6        29.72R
Otisville        N/A     37  34  87 W8          N/A  WCI  31
Warwick          N/A     39  37  93 NW12        N/A  WCI  32
Suffern          N/A     41  36  81 NW5         N/A
Poughkeepsie   CLOUDY    40  35  83 NW8       29.71F WCI  34
Albany         LGT RAIN  44  29  55 W10       29.71F
$$

NJZ001-105-106-008-010-013-015-019>022-104-191800-
New Jersey

CITY           SKY/WX    TMP DP  RH WIND       PRES   REMARKS
Newark/Liberty LGT RAIN  45  38  76 NW8       29.72R
Teterboro      CLOUDY    44  36  73 NW12      29.72R
Caldwell       LGT RAIN  42  37  82 NW5       29.73R
Somerville     LGT RAIN  42  39  89 W6        29.73R FOG
Linden         DRIZZLE   44  37  77 CALM      29.74R
Perth Amboy      N/A     43 N/A N/A N5          N/A
Sussex         LGT RAIN  41  34  76 NW5       29.74R
Andover          N/A     39  35  86 VRB7      29.74R WCI  34
Trenton        LGT RAIN  44  40  85 NW7       29.74R
Millville      PTSUNNY   56  42  59 W12G18    29.72S
Atlantic City  CLOUDY    57  42  57 W8        29.71F
Wrightstown    CLOUDY    48  39  73 NW7       29.71
Toms River     CLOUDY    50  40  68 NW7       29.72S
Belmar         CLOUDY    46  39  76 N6        29.72
$$

PAZ047>061-062-071-191800-
Eastern Pennsylvania

CITY           SKY/WX    TMP DP  RH WIND       PRES   REMARKS
Philadelphia   CLOUDY    48  39  71 N13       29.75R
Allentown      LGT RAIN  42  36  79 NW9       29.78R
Scranton       LGT RAIN  37  35  92 NW9       29.78R FOG     WCI  30
$$

CTZ002-004>006-009-010-012-RIZ004-006-007-MAZ004-011-015-191800-
Southern New England

 In CT

CITY           SKY/WX    TMP DP  RH WIND       PRES   REMARKS
Bradley Intl   CLOUDY    41  35  79 N3        29.69F
Hartford       LGT RAIN  40  36  86 N5        29.70F
Danbury        CLOUDY    40  35  83 NW6       29.70S
Wtrbury/Oxford CLOUDY    39  36  89 NW5       29.69S
Norwalk Harbor   N/A     39 N/A N/A NW5         N/A
Bridgeport     LGT RAIN  43  37  79 NW5       29.70F
Meriden        LGT RAIN  40  36  86 NW8       29.70S WCI  34
New Haven      LGT RAIN  42  36  79 N7        29.70S
Chester        LGT RAIN  41  37  87 NW8       29.67F
Groton         LGT RAIN  43  41  93 NE7       29.64F
Willimantic    LGT RAIN  41  36  82 NW5       29.69S

 In RI

CITY           SKY/WX    TMP DP  RH WIND       PRES   REMARKS
Providence     LGT RAIN  41  39  93 N6        29.69R
Block Island   LGT RAIN  40  39  97 NE8       29.67F WCI  34
Westerly       LGT RAIN  43  40  89 NE6       29.66F

In MA

CITY           SKY/WX    TMP DP  RH WIND       PRES   REMARKS
Boston         CLOUDY    40  35  83 NW6       29.69S
Worcester      CLOUDY    37  32  82 W8        29.65F WCI  31
Westfield      CLOUDY    42  36  79 CALM      29.68S
Provincetown   CLOUDY    39  37  92 VRB5      29.68F
Nantucket      LGT RAIN  41  40  96 N14       29.65S
$$

ANZ330-335-338-340-345-350-353-355-191800-
Coastal Marine Observations


STATION/POSITION TIME  SKY/WX   TEMP    WIND        PRES    VSBY  WAVE
                                AIR SEA DIR/SP/G                  HT/PER
                 (UTC)          (F)     (DEG/KT/KT) (MB)    (MI)  (FT/S)
NY Harb Entrance 1650            44 45  360/  4/  6 1006.4          2/ 8
20 S Fire Island 1650            43 42   20/  8/ 10 1006.1          3/ 4
23 SSW Montauk P 1650            41 42   40/ 14/ 16 1004.7          3/ 4
15 E Barnegat Li 1630               44                N/A           3/ 3
Hudson Canyon    1650            45 45  350/ 14/ 16 1005.4          4/ 5
Kings Point      1648               44                N/A
Execution Rocks  NOT AVBL
Western LI Sound NOT AVBL
Central LI Sound 1645            41     360/  6/ 10   N/A           1
Robbins Reef     1636            43     330/  6/ 10 1006.9
$$


>>>>>>>>>>>>>>>>>>>>>>>>>>>> KEY <<<<<<<<<<<<<<<<<<<<<<<<<<<
>                                                          <
>     SKY/WX - Sky Condition/Present Weather               <
>     TMP    - Temperature in Fahrenheit                   <
>     DP     - Dew Point in Fahrenheit                     <
>     RH     - Relative Humidity in Percent                <
>     WIND   - Direction (from) and Speed in MPH           <
>     PRES   - Mean Sea Level Pressure (inches of Hg)      <
>     WCI    - Wind Chill Index                            <
>     VSB    - Visibility in Miles                         <
>     HX     - Heat Index                                  <
>     TC     - Temperature in Celsius                      <
>     VRB    - Varibale Wind Direction                     <
>                                                          <
>>>>>>>>>>>>>>>>>>>>>>>>>>>> KEY <<<<<<<<<<<<<<<<<<<<<<<<<<<




USA.gov is the U.S. government's official web portal to all federal, state and local government web resources and services.